KZ4HT-13 Weather Reports


time (UTC)temp
F
wind
direction
speed
knots
gust
knots
rain 1hr
in
rain 24hr
in
rain mn
in
humidity
%
barometer
mb
20260504151114 79 64 5.2 9.6 0.00 0.00 0.00 47 1018.2
20260504150110 78 112 3.5 6.1 0.00 0.00 0.00 50 1018.3
20260504141050 75 50 4.3 8.7 0.00 0.00 0.00 53 1018.1
20260504100110 62 106 0.9 2.6 0.00 0.00 0.00 87 1016.4
20260504081057 64 111 0.9 1.7 0.00 0.00 0.00 85 1016.5
20260504080116 64 147 1.7 3.5 0.00 0.00 0.00 83 1016.5
20260504045053 68 80 1.7 2.6 0.00 0.00 0.00 72 1017.9
20260504044032 69 88 1.7 2.6 0.00 0.00 0.00 72 1018.0
20260504043051 69 77 1.7 1.7 0.00 0.00 0.00 71 1017.9
20260504042029 69 72 1.7 2.6 0.00 0.00 0.00 71 1017.9
20260504041028 69 62 1.7 3.5 0.00 0.00 0.00 71 1017.9
20260504040026 69 64 1.7 2.6 0.00 0.00 0.05 71 1018.0
20260504035025 69 65 1.7 3.5 0.00 0.00 0.05 71 1018.0
20260504034024 69 59 1.7 3.5 0.00 0.00 0.05 71 1018.1
20260504033022 69 68 1.7 2.6 0.00 0.00 0.05 71 1018.0
20260504032021 69 92 1.7 2.6 0.00 0.00 0.05 70 1018.0
20260504031020 69 79 0.9 2.6 0.00 0.00 0.05 71 1018.1
20260504030018 69 87 1.7 2.6 0.00 0.00 0.05 71 1018.0
20260504025057 69 119 0.9 4.3 0.00 0.00 0.05 71 1018.1
20260504024016 69 86 0.9 2.6 0.00 0.00 0.05 71 1017.9
20260504023135 69 136 1.7 3.5 0.00 0.00 0.05 70 1017.9
20260504022113 69 130 1.7 3.5 0.00 0.00 0.05 70 1017.8
20260504021132 69 93 0.9 2.6 0.00 0.00 0.05 70 1017.8
20260504020111 69 123 1.7 3.5 0.00 0.00 0.05 70 1017.5
20260504015149 69 104 1.7 3.5 0.00 0.00 0.05 70 1017.5
20260504014108 69 98 1.7 3.5 0.00 0.00 0.05 70 1017.5
20260504013107 69 84 1.7 3.5 0.00 0.00 0.05 70 1017.4
20260504012106 69 100 1.7 3.5 0.00 0.00 0.05 69 1017.3
20260504011104 69 96 0.9 1.7 0.00 0.00 0.05 69 1017.3
20260504005102 70 106 1.7 2.6 0.00 0.00 0.05 68 1017.0
20260504004101 70 83 1.7 4.3 0.00 0.00 0.05 68 1017.1
20260504003120 70 94 1.7 4.3 0.00 0.00 0.05 67 1017.0
20260504002118 71 80 2.6 5.2 0.00 0.00 0.05 66 1016.9
20260504001119 71 141 2.6 3.5 0.00 0.00 0.05 65 1016.7
20260504000055 71 113 1.7 5.2 0.00 0.00 0.05 65 1016.6
20260503235114 72 98 1.7 5.2 0.00 0.00 0.05 64 1016.5
20260503234053 72 127 1.7 3.5 0.00 0.00 0.05 63 1016.5
20260503233052 73 119 2.6 4.3 0.00 0.00 0.05 62 1016.5
20260503232131 73 49 3.5 7.8 0.00 0.00 0.05 61 1016.3
20260503231049 73 94 2.6 6.1 0.00 0.00 0.05 61 1016.4
20260503230048 74 83 1.7 4.3 0.00 0.00 0.05 61 1016.5
20260503225046 74 101 1.7 3.5 0.00 0.00 0.05 60 1016.4
20260503224045 75 95 2.6 5.2 0.00 0.00 0.05 61 1016.4
20260503223042 76 107 2.6 4.3 0.00 0.00 0.05 59 1016.4
20260503222040 77 102 2.6 3.5 0.00 0.00 0.05 57 1016.2
20260503221040 76 121 3.5 5.2 0.00 0.00 0.05 57 1016.2
20260503220038 76 60 3.5 6.1 0.00 0.00 0.05 58 1016.1
20260503215057 76 41 3.5 5.2 0.00 0.00 0.05 58 1016.2
20260503214036 76 44 3.5 6.1 0.00 0.00 0.05 57 1016.1
20260503213034 78 37 5.2 7.0 0.00 0.00 0.05 54 1016.1
20260503212033 77 81 3.5 5.2 0.00 0.00 0.05 56 1016.0
20260503211032 77 94 1.7 4.3 0.00 0.00 0.05 57 1016.1
20260503210031 77 49 2.6 5.2 0.00 0.00 0.05 55 1016.2
20260503205030 77 94 2.6 5.2 0.00 0.00 0.05 55 1016.1
20260503204049 78 71 2.6 5.2 0.00 0.00 0.05 54 1016.2
20260503203028 77 114 2.6 3.5 0.00 0.00 0.05 55 1016.4
20260503202026 79 102 2.6 7.0 0.00 0.00 0.05 52 1016.3
20260503201043 76 58 2.6 4.3 0.00 0.00 0.05 54 1016.5
20260503200021 78 79 4.3 7.8 0.00 0.00 0.05 53 1016.7
20260503195040 77 42 2.6 3.5 0.00 0.00 0.05 53 1016.7
20260503194018 78 69 1.7 5.2 0.00 0.00 0.05 54 1016.7
20260503193116 78 63 4.3 10.4 0.00 0.00 0.05 54 1017.0
20260503192153 77 61 4.3 6.1 0.00 0.00 0.05 54 1017.2
20260503191153 78 81 2.6 4.3 0.00 0.00 0.05 54 1017.3
20260503190110 76 74 2.6 5.2 0.00 0.00 0.05 56 1017.7
20260503185108 77 86 3.5 7.0 0.00 0.00 0.05 55 1017.6
20260503184107 77 31 4.3 7.8 0.00 0.00 0.05 55 1017.8
20260503183105 78 66 1.7 5.2 0.00 0.00 0.05 55 1017.9
20260503182104 78 70 3.5 9.6 0.00 0.00 0.05 56 1018.0
20260503181101 76 74 2.6 5.2 0.00 0.00 0.05 58 1018.2
20260503180100 76 80 3.5 5.2 0.00 0.00 0.05 60 1018.2
20260503175059 75 88 2.6 5.2 0.00 0.00 0.05 61 1018.4
20260503174057 75 62 3.5 6.1 0.00 0.00 0.05 61 1018.4
20260503173058 75 105 3.5 7.0 0.00 0.00 0.05 62 1018.5
20260503172053 74 44 3.5 6.1 0.00 0.00 0.05 63 1018.5
20260503171051 75 65 4.3 6.1 0.00 0.00 0.05 62 1018.6